Location: Buckland
(65.9785°N, 161.1281°W)
Time: 07:24:35
(UTC+00:00)

Transit 4A - Pass Details

Date: 03 August 2021
Orbit: 870 x 974 km, 66.8° (Epoch: 27 September)

Event Time Altitude Azimuth Distance (km) Brightness Sun altitude
Exits shadow 11:00:14 - 201° (SSW) 2,841 9.8 -6.6°
Reaches altitude 10° 11:01:07 10° 198° (SSW) 2,528 9.6 -6.6°
Maximum altitude 11:06:29 40° 131° (SE) 1,269 8.4 -6.6°
Drops below altitude 10° 11:11:53 10° 64° (ENE) 2,533 10.6 -6.6°
Sets 11:14:29 0° 57° (ENE) 3,479 11.5 -6.5°
